Weather in Baranovka

Russia / Ulyanovsk Oblast     53°01′28″N   47°09′30″E
temp.,
°C
wind,
m/s
gust,
m/s
humid.,
%
clouds,
%
prec.,
mm/h
press.,
hPa
HPBL,
m
12 april, mon
mon1201:00+6ne2496100 0.0 103070
04:00+5nne3799100 0.0 1031166
07:00+5ne36100100 0.0 1032170
10:00+9ene359469 0.0 1033205
13:00+15e456629 0.0 1032515
16:00+18e465598 0.0 1032854
19:00+14ene3474100 0.0 103246
22:00+11ese2282100 0.0 103311
13 april, tue
tue1301:00+9ese228162 0.0 103411
04:00+7ese22855 0.0 103428
07:00+7ese248551 0.0 103569
10:00+13se475586 0.0 1034416
13:00+16se563447 0.0 1033852
16:00+17se46316 0.0 1032916
19:00+13se34504 0.0 103151
22:00+9se37595 0.0 1032100
14 april, wed
wed1401:00+7se22655 0.0 103110
04:00+6e22705 0.0 103110
07:00+6e24775 0.0 103066
10:00+12ese58625 0.0 1029482
13:00+16se57484 0.0 1027887
16:00+17se56435 0.0 10251063
19:00+13se34594 0.0 102478
22:00+10se22710 0.0 102417
15 april, thu
thu1501:00+8ese22790 0.0 102312
04:00+7ese22860 0.0 102310
07:00+7e22870 0.0 102318
10:00+13ese34600 0.0 1022436
13:00+17se34430 0.0 10201294
16:00+18sse34410 0.0 10191671
19:00+15se22580 0.0 101822
22:00+12ese116567 0.0 101810
16 april, fri
fri1601:00+10ese1172100 0.0 101810
04:00+9se117094 0.0 101810
07:00+10se116995 0.0 101710
10:00+16ese124712 0.0 1017374
13:00+19se223791 0.0 10161693
16:00+19ese2235100 0.0 10152155
19:00+15s2250100 0.0 101517
22:00+12nne116788 0.0 101511